Tracking 29777 objects as of 6-Oct-2024
HD Live streaming from Space Station
objects crossing your sky now

STARLINK-2555

Track STARLINK-2555 now!
10-day predictions
STARLINK-2555 is classified as:


NORAD ID: 48291
Int'l Code: 2021-036R
Perigee: 553.2 km
Apogee: 555.4 km
Inclination: 53.1 °
Period: 95.6 minutes
Semi major axis: 6925 km
RCS: Unknown
Launch date: April 29, 2021
Source: United States (US)
Launch site: AIR FORCE EASTERN TEST RANGE (AFETR)
Your satellite tracking list
Your tracking list is empty




NASA's NSSDC Master Catalog

Two Line Element Set (TLE):
1 48291U 21036R   24280.20544046  .00018066  00000-0  12279-2 0  9991
2 48291  53.0551 253.6721 0001630  85.4135 274.7040 15.06420927190591
Source of the keplerian elements: AFSPC